Lexington Weather

Lexington, Massachusetts, USA

48°F
12/8/2022 3:22pm 
  • Lexington Conditions: Clear
  • Temperature: 47.7°F / 8.7°CColder 1.6°F than last hour.
  • Dew Point: 35.2°FDecreased 0.4°Fsince last hour.
  • Relative Humidity: 62%Increased 3.0% since last hour.
  • Wind: Wind from NW NW 3 mph, 10-min avg: 2 mph, gust: 8 mph
  • Barometer: 30.09 inRising 0.03  inHg/hr Rising Slowly
  • Visibility: 10 miles
  • Rain Today: 0.00 in
  •   

Warning: Undefined variable $rc in /homepages/6/d276339138/htdocs/weather/20190804/ssi/nwsProduct.php on line 323

Warning: Undefined variable $rc in /homepages/6/d276339138/htdocs/weather/20190804/ssi/nwsProduct.php on line 325

Warning: Undefined variable $rc in /homepages/6/d276339138/htdocs/weather/20190804/ssi/nwsProduct.php on line 323

Warning: Undefined variable $rc in /homepages/6/d276339138/htdocs/weather/20190804/ssi/nwsProduct.php on line 325

Warning: Undefined variable $rc in /homepages/6/d276339138/htdocs/weather/20190804/ssi/nwsProduct.php on line 323

Warning: Undefined variable $rc in /homepages/6/d276339138/htdocs/weather/20190804/ssi/nwsProduct.php on line 325

Warning: Undefined variable $rc in /homepages/6/d276339138/htdocs/weather/20190804/ssi/nwsProduct.php on line 323

Warning: Undefined variable $rc in /homepages/6/d276339138/htdocs/weather/20190804/ssi/nwsProduct.php on line 325

Warning: Undefined variable $rc in /homepages/6/d276339138/htdocs/weather/20190804/ssi/nwsProduct.php on line 323

Warning: Undefined variable $rc in /homepages/6/d276339138/htdocs/weather/20190804/ssi/nwsProduct.php on line 325

Warning: Undefined variable $rc in /homepages/6/d276339138/htdocs/weather/20190804/ssi/nwsProduct.php on line 323

Warning: Undefined variable $rc in /homepages/6/d276339138/htdocs/weather/20190804/ssi/nwsProduct.php on line 325

Warning: Undefined variable $rc in /homepages/6/d276339138/htdocs/weather/20190804/ssi/nwsProduct.php on line 323

Warning: Undefined variable $rc in /homepages/6/d276339138/htdocs/weather/20190804/ssi/nwsProduct.php on line 325

Regional Weather Roundup
for Boston, MA

        
000
ASUS41 KBOX 081310
RWRBOX

REGIONAL WEATHER ROUNDUP
NATIONAL WEATHER SERVICE BOSTON/NORTON MA
800 AM EST THU DEC 08 2022

NOTE:  "FAIR" INDICATES FEW OR NO CLOUDS BELOW 12,000 FEET WITH NO 
SIGNIFICANT WEATHER AND/OR OBSTRUCTIONS TO VISIBILITY.

MAZALL-081400-
EASTERN MASSACHUSETTS
  
CITY           SKY/WX    TMP DP  RH WIND       PRES   REMARKS
BOSTON         PTCLDY    49  37  63 NW14G23   30.13R                  
BEVERLY        CLEAR     47  35  63 NW16G24   30.10R                  
LAWRENCE       CLEAR     47  35  63 NW10G20   30.14R                  
BEDFORD        CLEAR     47  39  74 NW8       30.13R                  
NORWOOD        CLEAR     50  41  71 NW8       30.13R                  
MARSHFIELD       N/A     48  41  76 NW10      30.11R                  
PLYMOUTH       CLEAR     49  41  74 N8        30.10R                  
TAUNTON          N/A    N/A N/A N/A MISG      30.12R                  
NEW BEDFORD    CLEAR     50  44  80 VRB6      30.11R                  
$$

MAZALL-081400-
CAPE COD AND THE ISLANDS
  
CITY           SKY/WX    TMP DP  RH WIND       PRES   REMARKS
FALMOUTH       CLEAR     48  41  76 N13G18    30.10R                  
HYANNIS        CLEAR     49  43  80 N15G25    30.06R                  
CHATHAM        CLEAR     51  44  77 VRB6      30.08R                  
PROVINCETOWN   CLEAR     50  43  77 NW22G28   30.10R                  
NANTUCKET      NOT AVBL                                               
MARTHAS VNYRD  CLEAR     51  45  79 NW12      30.10R                  
$$
 
MAZALL-081400-
CENTRAL AND WESTERN MASSACHUSETTS
  
CITY           SKY/WX    TMP DP  RH WIND       PRES   REMARKS
WORCESTER      MOCLDY    46  38  73 NW13      30.14R                  
FITCHBURG      PTCLDY    46  39  76 NW3       30.16R                  
ORANGE         CLOUDY    45  36  70 N5        30.18R                  
SPRINGFIELD    PTCLDY    46  36  67 N13       30.16R                  
WESTFIELD      MOCLDY    45  38  76 NW9       30.19R                  
NORTH ADAMS    CLOUDY    44  38  79 W7        30.21R                  
PITTSFIELD     CLOUDY    40  36  86 NW9       30.18R                  
$$
 
RIZALL-081400-
RHODE ISLAND
  
CITY           SKY/WX    TMP DP  RH WIND       PRES   REMARKS
PROVIDENCE     PTCLDY    50  44  80 NW7       30.13R                  
NEWPORT        CLEAR     49  43  80 NW10      30.11R                  
BLOCK ISLAND   CLEAR     49  43  80 NW9G20    30.14R                  
SMITHFIELD     CLEAR     47  43  86 N12       30.13R                  
WESTERLY       CLEAR     49  42  77 MISG      30.14R                  
$$
 
CTZALL-081400-
CONNECTICUT
  
CITY           SKY/WX    TMP DP  RH WIND       PRES   REMARKS
BRADLEY INTL   PTCLDY    47  37  68 NW8       30.19R                  
HARTFORD       CLEAR     49  37  63 NW8       30.19R                  
BRIDGEPORT     CLEAR     48  37  65 N14G23    30.20R                  
DANBURY        PTCLDY    45  37  73 NE3       30.24R                  
GROTON         CLEAR     50  42  74 NW10      30.16R                  
NEW HAVEN      CLEAR     49  39  68 N12       30.19R                  
CHESTER        FAIR      46  39  76 NW16      30.17R                  
MERIDEN        CLEAR     47  36  65 NW12      30.20R                  
WILLIMANTIC    CLEAR     46  40  79 NW13      30.18R                  
OXFORD         CLEAR     44  37  76 NW10      30.21R                  
$$

MEZ002-015-021-024-NHZ003-005-008-011-012-014-VTZ005-008-081400-
NORTHERN NEW ENGLAND
  
CITY           SKY/WX    TMP DP  RH WIND       PRES   REMARKS
PORTLAND ME    CLEAR     40  38  93 NW6       30.09R                  
BANGOR ME      MOCLDY    46  41  82 NW13G20   30.03R                  
CONCORD NH     CLEAR     43  34  70 N12G18    30.16R                  
MANCHESTER NH  PTCLDY    46  36  68 NW15      30.14R                  
NASHUA NH      CLEAR     45  41  86 NW12      30.16R                  
PORTSMOUTH NH  CLEAR     45  38  75 W15       30.10R                  
JAFFREY NH     CLEAR     45  33  63 VRB7      30.15R                  
KEENE NH       CLOUDY    45  37  73 NW8         N/A                   
BURLINGTON VT  MOCLDY    40  35  83 N5        30.23S                  
MT. WASHINGTON SNOW      19  19 100 NW43G64     N/A  VSB 0   WCI  -2  
$$

NYZ052-076-081400-
EASTERN NEW YORK
  
CITY           SKY/WX    TMP DP  RH WIND       PRES   REMARKS
ALBANY         MOCLDY    44  37  76 NW8       30.23S                  
NEW YORK CITY  MOCLDY    50  39  66 N9        30.22R                  
$$
 
ANZALL-081400-
MARINE OBSERVATIONS
  
STATION/POSITION TIME  TEMP    WIND        PRES    VSBY  WAVE
                       AIR SEA DIR/SP/G                  HT/PER
                 (UTC) (F)     (DEG/KT/KT) (MB)    (MI)  (FT/S)
BOSTON BUOY      1250      50  330/ 17/ 21 1020.0R         4/ 8
BUZZARDS BAY     1200   51     340/  8/  9 1019.9R
NANTUCKET SOUND  1250   52     330/ 19/ 23 1018.7R         2/ 3
MASS BAY-STELLWA 1104   50 50  310/ 17/ 25 1017.8R  1 7/8  5/11
ISLE OF SHOALS   1200   47     320/ 12/ 15 1018.6R
S OF BLOCK IS    1256      55                N/A           5/10
$$

......................KEY.........................
  SKY/WX - SKY CONDITION/PRESENT WEATHER
  TMP    - TEMPERATURE IN FAHRENHEIT
  DWPT   - DEWPOINT IN FAHRENHEIT
  RH     - RELATIVE HUMIDITY IN PERCENT
  WIND   - DIRECTION AND SPEED IN MPH
  PRES   - MEAN SEA LEVEL PRESSURE IN INCHES OF HG
  WCI    - WIND CHILL INDEX
  VSB    - VISIBILITY IN MILES
  HX     - HEAT INDEX
  TC     - TEMPERATURE IN CELSIUS
  VRB    - VARIABLE WIND DIRECTION
  N/A    - NOT AVAILABLE
  
      

Other recent Regional Weather Roundups

Thu Dec 8, 3:10pm

Thu Dec 8, 2:10pm

Thu Dec 8, 1:10pm

Thu Dec 8, 12:10pm

Thu Dec 8, 11:10am

Thu Dec 8, 10:10am

Thu Dec 8, 9:10am

Thu Dec 8, 7:10am

Thu Dec 8, 6:10am

Thu Dec 8, 5:10am

Thu Dec 8, 4:10am

Thu Dec 8, 3:10am

Thu Dec 8, 2:10am

Thu Dec 8, 1:10am

Thu Dec 8, 12:10am

Wed Dec 7, 11:10pm

Wed Dec 7, 10:10pm

Wed Dec 7, 9:10pm

Wed Dec 7, 8:10pm

Wed Dec 7, 7:10pm

Wed Dec 7, 6:10pm

Wed Dec 7, 5:10pm

Wed Dec 7, 4:10pm

Wed Dec 7, 3:10pm

Wed Dec 7, 2:10pm

Wed Dec 7, 1:10pm

Wed Dec 7, 12:10pm

Wed Dec 7, 11:10am

Wed Dec 7, 10:10am

Wed Dec 7, 9:10am

Wed Dec 7, 8:10am

Wed Dec 7, 7:10am

Wed Dec 7, 6:10am

Wed Dec 7, 5:10am

Wed Dec 7, 4:10am

Wed Dec 7, 3:10am

Wed Dec 7, 2:10am

Wed Dec 7, 1:10am

Wed Dec 7, 12:10am

Tue Dec 6, 11:10pm

Tue Dec 6, 10:10pm

Tue Dec 6, 9:10pm

Tue Dec 6, 8:10pm

Tue Dec 6, 7:10pm

Tue Dec 6, 6:10pm

Tue Dec 6, 5:10pm

Tue Dec 6, 4:10pm

Tue Dec 6, 3:10pm

Tue Dec 6, 2:10pm

Tue Dec 6, 1:10pm

Tue Dec 6, 12:10pm

Tue Dec 6, 11:10am

Tue Dec 6, 10:10am

Tue Dec 6, 9:10am

Tue Dec 6, 8:10am

Tue Dec 6, 7:10am

Tue Dec 6, 6:10am

Tue Dec 6, 5:10am

Tue Dec 6, 4:10am

Tue Dec 6, 3:10am

Tue Dec 6, 2:10am

Tue Dec 6, 1:10am

Tue Dec 6, 12:10am

Mon Dec 5, 11:10pm

Mon Dec 5, 10:10pm

Mon Dec 5, 9:10pm

Mon Dec 5, 8:10pm

Mon Dec 5, 7:10pm

Mon Dec 5, 6:10pm

Mon Dec 5, 5:10pm

Mon Dec 5, 4:10pm

Mon Dec 5, 3:10pm

Mon Dec 5, 2:10pm

Mon Dec 5, 1:10pm

Mon Dec 5, 12:10pm

Mon Dec 5, 11:10am

Mon Dec 5, 10:10am

Mon Dec 5, 9:10am

Mon Dec 5, 8:10am

Mon Dec 5, 7:10am

Mon Dec 5, 6:10am

Mon Dec 5, 5:10am

Mon Dec 5, 4:10am

Mon Dec 5, 3:10am

Mon Dec 5, 2:10am

Mon Dec 5, 1:10am

Mon Dec 5, 12:10am

Sun Dec 4, 11:10pm

Sun Dec 4, 10:10pm

Sun Dec 4, 9:10pm

Sun Dec 4, 8:10pm

Sun Dec 4, 7:10pm

Sun Dec 4, 6:10pm

Sun Dec 4, 5:10pm

Sun Dec 4, 4:10pm

Sun Dec 4, 3:10pm

Sun Dec 4, 2:10pm

Sun Dec 4, 1:10pm

Sun Dec 4, 12:10pm

Sun Dec 4, 11:10am

Sun Dec 4, 10:10am

Sun Dec 4, 9:10am

Sun Dec 4, 8:10am

Sun Dec 4, 7:10am

Sun Dec 4, 6:10am

Sun Dec 4, 5:10am

Sun Dec 4, 4:10am

Sun Dec 4, 3:10am

Sun Dec 4, 2:10am

Sun Dec 4, 1:10am

Sun Dec 4, 12:10am

Sat Dec 3, 11:10pm

Sat Dec 3, 10:10pm

Sat Dec 3, 9:10pm

Sat Dec 3, 8:10pm

Sat Dec 3, 7:10pm

Sat Dec 3, 6:10pm

Sat Dec 3, 5:10pm

Sat Dec 3, 4:10pm

Sat Dec 3, 3:10pm

Sat Dec 3, 2:10pm

Sat Dec 3, 1:10pm

Sat Dec 3, 12:10pm

Sat Dec 3, 11:10am

Sat Dec 3, 10:10am

Sat Dec 3, 9:10am

Sat Dec 3, 8:10am

Sat Dec 3, 7:10am

Sat Dec 3, 6:10am

Sat Dec 3, 5:10am

Sat Dec 3, 4:10am

Sat Dec 3, 3:10am

Sat Dec 3, 2:10am

Sat Dec 3, 1:10am

Sat Dec 3, 12:10am

Fri Dec 2, 11:10pm

Fri Dec 2, 10:10pm

Fri Dec 2, 9:10pm

Fri Dec 2, 8:10pm

Fri Dec 2, 7:10pm

Fri Dec 2, 6:10pm

Fri Dec 2, 5:10pm

Fri Dec 2, 4:10pm

Fri Dec 2, 3:10pm

Fri Dec 2, 2:10pm

Fri Dec 2, 1:10pm

Fri Dec 2, 12:10pm

Fri Dec 2, 11:10am

Fri Dec 2, 10:10am

Fri Dec 2, 9:10am

Fri Dec 2, 8:10am

Fri Dec 2, 7:10am

Fri Dec 2, 6:10am

Fri Dec 2, 5:10am

Fri Dec 2, 4:10am

Fri Dec 2, 3:10am

Fri Dec 2, 2:10am

Fri Dec 2, 1:10am

Fri Dec 2, 12:10am

Thu Dec 1, 11:10pm

Thu Dec 1, 10:10pm

Thu Dec 1, 9:10pm

Thu Dec 1, 8:10pm

Thu Dec 1, 7:10pm

Thu Dec 1, 6:10pm

Thu Dec 1, 5:10pm

Thu Dec 1, 4:10pm

Meta data:

ID: c9315db0-f80b-41a7-814d-eccf28753f28
Link: https://api.weather.gov/products/c9315db0-f80b-41a7-814d-eccf28753f28